Tracking 29606 objects as of 18-Sep-2024
HD Live streaming from Space Station
objects crossing your sky now

SOLRAD 11B AKM

Track SOLRAD 11B AKM now!


NORAD ID: 8753
Int'l Code: 1976-023H
Perigee: 118,703.5 km
Apogee: 126,835.2 km
Inclination: 15.1 °
Period: 7,697.6 minutes
Semi major axis: 129140 km
RCS: Unknown
Launch date: March 15, 1976
Source: United States (US)
Launch site: AIR FORCE EASTERN TEST RANGE (AFETR)

Note: This is a ROCKET BODY
Your satellite tracking list
Your tracking list is empty




NASA's NSSDC Master Catalog

Two Line Element Set (TLE):
1 08753U 76023H   24264.46750029 -.00000909  00000-0  00000-0 0  9991
2 08753  15.1435 329.9199 0314840 102.8011   3.5506  0.18707251  4227
Source of the keplerian elements: AFSPC